GEFSSE_con_probscp_186.txt.gz
Probability
6 11 15 14 12 9 6 4 3 4 6 9 9 9 8 6 5 4 4 3 1 0 0 0 0 0 0 0 0 0 0 0 0 0 0 0 0 0 0 0 0 1 1
9 13 16 15 13 11 8 6 5 5 6 8 8 7 6 5 4 4 3 2 1 0 0 0 0 0 0 0 0 0 0 0 0 0 0 0 0 0 0 0 0 0 1
13 17 17 15 15 13 12 11 10 9 8 9 9 7 4 3 3 3 3 1 0 0 0 0 0 0 0 0 0 0 0 0 0 0 0 0 0 1 0 0 0 0 0
18 20 18 16 15 14 14 15 15 13 13 13 11 7 4 3 3 3 2 1 0 0 0 0 0 0 0 0 0 0 0 0 0 0 0 0 2 3 1 0 0 0 0
21 22 20 17 15 14 15 16 16 16 16 16 13 7 4 3 3 3 2 1 0 0 0 0 0 0 0 1 1 2 1 1 0 0 0 1 3 5 3 0 0 0 0
21 22 22 19 16 15 17 17 17 16 16 16 12 7 4 3 3 3 2 1 0 0 0 0 0 0 0 1 2 2 2 2 1 1 1 1 4 6 4 1 0 0 0
21 22 23 21 17 15 17 18 18 18 17 16 13 9 5 4 4 4 3 2 1 0 0 0 0 0 0 1 1 1 2 2 2 2 2 2 4 7 5 1 1 1 0
19 21 23 21 17 15 16 19 22 22 21 18 14 10 7 6 5 5 5 4 2 0 0 0 1 1 0 0 0 0 1 1 1 2 2 4 6 7 5 3 2 2 1
16 18 20 20 17 16 17 20 23 24 22 18 13 11 9 8 6 6 5 4 1 0 0 1 1 1 1 1 0 0 0 0 0 1 2 7 11 11 7 5 4 4 4
16 18 20 19 18 15 15 18 21 22 21 17 13 11 10 9 7 6 5 3 2 1 1 1 2 1 1 0 0 0 0 0 0 1 4 11 17 15 10 7 6 6 6
20 22 23 22 19 15 14 16 19 20 19 16 13 12 11 9 7 6 7 6 4 2 2 2 3 2 1 1 2 3 2 2 1 2 7 15 17 13 8 7 8 9 11
26 26 26 26 24 20 18 20 21 21 20 17 15 14 13 12 9 8 10 10 7 4 4 6 6 5 4 5 6 7 7 6 5 5 9 15 15 9 6 7 9 13 16
28 28 28 29 29 28 26 25 25 25 24 22 20 19 18 16 14 12 13 13 11 8 8 9 9 7 7 7 8 9 10 9 8 8 11 15 14 9 8 9 12 16 20
27 28 28 30 33 35 33 30 27 27 28 26 24 24 23 20 17 16 16 15 13 11 10 10 10 9 8 8 8 9 10 10 9 10 12 15 15 11 10 10 13 16 19
25 26 27 30 36 40 39 34 29 29 29 27 26 25 24 22 19 19 19 17 15 13 12 10 9 9 8 8 8 7 8 9 9 9 11 13 13 10 9 9 11 14 16
24 24 27 31 37 42 42 38 34 32 31 29 27 26 24 22 21 21 20 18 15 14 13 10 9 8 8 7 6 5 6 7 8 8 7 7 8 7 6 6 7 8 11
25 27 30 33 39 44 45 42 36 32 31 30 30 29 26 24 24 23 20 18 15 13 13 10 9 7 7 6 4 2 3 4 4 5 4 4 4 3 2 2 2 3 5
27 31 34 36 41 44 44 41 34 29 29 28 26 26 25 24 24 22 19 16 13 12 10 9 8 7 6 4 2 1 1 2 1 2 2 3 3 2 2 2 1 1 2
28 31 35 37 40 42 41 37 32 30 28 23 20 19 20 21 20 17 15 13 11 9 8 8 8 7 6 5 3 2 1 1 0 0 1 2 2 3 4 5 4 2 2
27 30 33 37 40 40 37 33 32 30 26 20 16 17 19 19 17 14 12 11 10 8 8 8 8 7 6 5 5 4 3 1 0 0 0 1 1 2 5 7 8 7 5
28 29 32 37 40 38 35 33 33 29 24 19 17 19 20 19 16 13 11 10 9 9 8 8 8 6 5 5 5 5 3 2 1 0 0 1 1 2 3 6 8 9 9
30 30 31 36 38 37 35 35 32 28 23 20 20 21 20 18 15 13 10 8 7 7 7 6 6 5 4 4 4 4 3 2 2 1 0 1 1 2 2 4 6 7 8
30 30 30 34 36 35 34 32 29 26 22 21 20 20 19 16 14 11 8 5 3 4 6 5 4 4 2 2 3 3 2 2 2 2 1 0 1 2 2 2 3 3 3
25 26 28 33 35 34 31 29 27 25 22 21 19 17 16 15 13 9 6 4 3 4 4 4 3 3 2 1 1 1 1 2 2 2 1 0 0 1 1 1 1 1 2
19 22 27 31 33 32 31 30 30 27 23 20 18 16 15 14 11 7 5 5 5 3 2 3 3 3 2 1 1 1 1 1 1 1 0 0 0 0 1 1 1 1 2
17 22 28 29 30 31 31 32 32 29 24 20 18 17 16 13 9 6 5 5 4 2 1 2 3 3 2 1 1 1 0 0 0 0 0 1 1 1 2 2 1 1 1

GEFSSE_con_probscp_192.txt.gz
Probability
24 24 31 32 24 16 8 3 2 3 3 1 1 1 3 3 3 1 0 0 0 0 0 0 0 0 0 0 0 0 0 0 0 0 0 0 0 0 0 1 3 4 4
28 28 34 34 26 18 11 5 4 4 3 2 2 2 2 2 2 2 1 1 0 0 0 0 0 0 0 1 1 0 0 0 0 0 0 0 0 1 1 1 2 3 3
34 31 34 36 29 22 16 9 6 6 5 4 3 3 1 1 1 2 2 1 0 0 0 0 0 0 0 1 1 0 0 0 1 1 0 0 3 5 4 1 1 1 1
35 31 32 35 31 26 21 14 10 8 7 6 5 3 1 1 1 2 2 1 0 0 0 0 0 0 0 1 1 0 0 0 1 1 0 1 7 14 9 2 0 0 0
33 31 31 33 32 29 25 19 14 10 8 7 5 4 3 3 3 3 3 1 1 0 0 0 0 0 0 1 2 1 1 1 1 1 0 1 9 19 16 6 2 1 1
29 31 34 35 35 31 25 21 18 15 11 10 9 7 7 6 5 4 3 3 2 1 1 0 0 0 1 2 3 3 2 2 1 0 0 2 11 22 21 12 7 4 2
29 33 38 41 39 34 26 21 21 21 20 18 17 14 11 10 9 6 4 3 3 3 2 1 0 0 1 2 2 2 2 2 1 1 1 4 16 28 27 18 12 8 6
31 35 41 43 42 37 31 26 24 24 24 24 23 19 15 12 10 7 4 4 4 4 3 1 0 0 0 1 1 1 1 1 1 1 2 9 25 38 35 25 18 13 11
34 38 41 41 40 38 35 31 28 26 25 25 23 20 16 13 10 8 6 5 5 5 4 3 1 1 1 0 0 0 0 0 0 1 3 13 30 42 40 32 25 20 18
37 40 41 38 36 35 34 33 30 28 26 24 20 16 14 12 10 9 9 9 8 7 6 5 4 4 3 3 2 2 2 2 1 2 5 15 30 39 38 34 29 24 22
39 40 40 38 36 32 31 32 31 28 26 23 19 15 12 10 9 10 12 14 14 11 9 9 9 9 8 7 7 8 7 5 2 2 9 19 29 34 34 32 29 26 25
38 38 37 38 38 35 34 36 32 27 25 22 20 18 15 12 11 13 18 23 22 18 14 13 14 13 12 10 11 13 12 8 4 4 13 25 30 30 29 28 27 26 27
38 37 36 39 42 42 43 42 36 32 30 26 25 25 22 19 19 21 25 29 28 23 19 18 17 15 13 12 12 12 11 9 7 6 14 26 30 26 23 23 23 24 25
39 38 37 42 49 52 52 49 44 42 41 38 36 34 31 29 29 29 30 30 29 25 23 21 18 14 12 11 10 8 7 7 8 8 13 23 27 23 18 18 19 20 22
41 41 40 46 55 60 60 57 52 51 52 52 49 42 36 34 33 32 32 31 28 25 21 19 17 13 12 11 8 6 5 5 6 8 12 20 24 22 19 16 16 17 17
47 47 47 51 58 63 63 60 56 55 55 56 54 46 38 34 33 32 31 29 27 23 20 17 15 13 13 11 9 7 6 6 7 9 11 16 20 22 21 17 13 13 13
55 55 54 55 60 65 62 57 54 53 52 51 49 46 39 34 32 31 29 28 26 23 20 19 17 15 14 13 11 9 8 8 9 11 12 14 15 18 21 20 16 13 12
60 60 57 55 60 63 58 53 51 50 50 48 45 44 40 35 32 31 29 27 25 22 20 19 19 17 15 13 12 10 9 10 11 12 12 12 10 12 17 19 16 13 12
61 61 58 56 59 60 56 51 49 49 50 48 44 42 38 33 32 32 31 27 24 23 20 18 19 18 15 12 10 8 8 10 11 10 9 8 8 9 10 11 11 9 8
60 60 59 59 60 60 57 52 49 48 47 43 40 39 37 32 30 31 31 28 25 23 21 18 17 16 13 11 8 5 6 8 8 7 6 7 7 7 6 5 6 6 6
57 57 58 59 61 62 60 56 51 46 41 37 35 36 36 33 30 29 29 28 25 23 21 18 15 13 12 10 8 5 5 6 4 4 5 7 6 6 5 5 5 5 5
53 54 54 56 59 61 59 56 50 44 38 35 35 35 36 35 31 27 27 25 24 23 20 16 14 11 9 8 7 5 4 3 2 1 3 4 4 5 5 4 4 5 6
50 51 52 53 56 58 56 52 47 42 37 36 37 37 36 34 30 27 26 25 23 22 18 14 11 9 6 5 4 3 2 2 1 0 1 1 2 4 4 2 3 5 6
42 45 50 52 54 55 54 49 45 40 36 36 38 39 36 31 26 25 28 27 25 22 16 12 9 8 6 4 3 2 2 2 1 0 0 0 1 2 2 1 2 4 5
32 37 45 50 52 54 52 48 44 39 35 35 37 36 32 27 24 25 28 29 25 20 14 10 9 9 8 5 3 2 2 2 1 0 0 0 0 1 1 1 1 2 4
27 32 41 48 52 53 50 46 43 38 34 34 34 31 27 25 25 27 28 27 22 17 12 10 9 10 9 6 3 1 1 2 1 0 0 0 0 0 0 0 1 1 3

GEFSSE_con_probscp_198.txt.gz
Probability
4 12 23 27 26 24 22 21 19 15 10 4 1 0 1 2 2 1 0 0 0 0 0 0 0 0 0 0 0 0 0 0 0 0 0 0 1 3 5 4 4 5 7
7 16 28 30 29 28 25 24 21 18 14 7 2 1 2 4 3 1 0 0 0 0 0 0 0 0 0 0 0 0 0 0 0 0 0 0 1 3 5 5 5 6 8
12 21 32 35 33 31 29 26 24 20 16 11 6 3 3 3 3 2 1 0 0 0 0 0 0 0 0 0 0 0 0 0 0 0 1 0 1 3 5 6 6 7 8
19 24 33 39 38 34 30 27 24 19 16 13 10 5 3 2 1 1 1 0 0 0 0 0 0 0 0 0 1 0 0 0 0 0 0 0 1 2 4 5 6 6 6
21 25 34 43 44 38 33 29 24 20 16 13 10 6 3 2 1 1 1 1 0 0 0 0 0 0 0 0 0 0 0 0 0 0 0 0 0 1 3 5 6 6 6
21 26 37 45 46 43 39 33 27 23 19 13 8 5 4 3 3 2 2 2 1 0 0 0 0 0 0 0 0 0 0 0 0 0 0 0 1 2 5 6 7 7 7
24 30 38 43 44 44 43 39 32 28 25 18 10 6 4 3 3 3 3 3 2 1 0 0 0 0 0 0 0 0 0 0 0 0 0 1 2 4 6 7 7 7 5
31 34 37 38 39 42 44 42 37 33 31 24 14 8 6 4 3 3 3 4 3 1 0 0 0 0 0 0 0 0 0 0 0 0 0 1 2 4 6 9 10 9 8
37 37 36 33 33 36 40 41 40 38 34 26 17 11 7 5 4 4 5 5 4 2 1 1 0 0 0 0 0 0 0 0 0 1 1 2 2 2 5 11 14 13 14
38 37 35 32 30 30 33 37 40 39 34 27 18 12 9 8 6 6 6 8 7 5 4 2 1 0 0 0 0 0 0 0 1 2 3 4 4 2 5 13 16 16 17
34 34 32 30 29 28 29 33 36 36 33 26 17 12 10 9 7 6 7 9 9 8 7 4 2 1 1 1 1 1 1 1 2 3 4 4 5 5 6 12 16 16 16
28 27 27 27 28 29 30 30 32 32 30 24 16 12 10 9 7 6 7 8 9 10 8 6 4 4 4 4 4 3 3 3 2 2 4 5 7 8 7 10 16 17 15
27 25 23 24 26 29 31 31 29 29 27 23 17 13 9 7 7 6 7 7 8 9 8 7 6 6 7 7 6 6 5 3 1 1 3 6 8 8 7 9 14 15 14
29 26 24 24 26 29 31 30 28 26 25 22 18 13 9 7 6 6 6 6 6 7 8 7 6 6 6 6 7 6 4 3 1 1 2 6 7 6 6 8 11 12 11
31 28 25 25 27 29 31 29 26 25 23 21 18 14 10 8 7 7 7 6 6 6 7 6 6 5 5 5 6 6 4 2 1 0 2 4 6 6 7 9 10 9 9
34 31 29 28 28 30 30 29 27 26 23 20 17 14 10 9 8 7 7 7 6 6 6 6 5 4 5 6 6 5 4 3 2 1 2 4 5 7 10 13 12 9 8
38 36 35 33 31 30 30 28 27 27 25 21 17 15 12 10 9 8 7 7 6 6 6 5 4 3 4 6 6 4 3 3 3 3 3 4 5 7 12 14 14 11 9
40 40 41 38 32 29 27 26 26 26 24 21 18 17 15 12 9 7 6 6 6 6 5 5 4 3 4 5 5 4 3 3 3 3 3 2 3 5 8 12 14 13 9
42 43 42 38 32 27 24 24 23 21 20 19 18 18 17 14 11 8 7 6 6 6 6 5 4 3 3 4 3 3 2 2 2 2 2 1 1 2 4 7 11 11 8
42 42 41 37 33 28 24 22 20 18 17 17 17 17 17 15 12 10 8 7 7 7 7 6 5 3 3 2 2 2 1 0 1 1 1 1 1 1 2 4 6 6 5
38 38 38 37 34 30 25 21 18 16 16 16 16 16 15 13 12 9 8 7 7 7 7 7 5 3 1 1 0 0 0 0 0 0 0 0 1 1 2 3 3 2 2
34 34 34 34 32 30 27 22 17 15 16 16 16 14 12 11 10 7 5 5 5 5 6 7 5 2 1 0 0 0 0 0 0 0 0 0 0 1 2 2 1 0 0
33 32 31 31 31 31 28 23 17 14 14 15 14 12 10 9 8 5 3 2 2 3 4 4 3 1 0 0 0 0 0 0 0 0 0 0 0 0 1 1 0 0 0
32 30 29 30 32 32 29 23 17 13 12 11 11 11 9 8 7 5 3 1 1 1 2 2 1 0 0 0 0 0 0 0 0 0 0 0 0 0 0 0 0 0 0
25 25 26 27 29 30 28 23 17 13 11 9 10 10 8 7 6 6 4 2 1 1 2 1 1 0 0 0 0 0 0 0 0 0 0 0 0 0 0 0 0 0 0
20 21 22 24 25 29 28 21 15 12 10 10 10 9 7 6 6 6 4 1 1 2 3 2 2 1 0 0 0 0 0 0 0 0 0 0 0 0 0 0 0 0 0

GEFSSE_con_probscp_204.txt.gz
Probability
3 13 25 25 23 26 30 31 30 28 26 22 19 15 12 10 8 7 7 6 5 3 1 0 0 1 2 1 1 1 0 0 0 0 0 0 0 0 0 0 0 0 0
6 16 29 31 28 30 32 33 32 31 28 24 21 17 14 12 10 8 7 5 4 3 2 2 1 2 3 2 2 1 0 0 0 0 0 0 0 0 0 0 0 0 1
14 20 30 35 35 35 36 36 35 34 31 28 25 22 18 14 11 9 7 4 3 3 3 4 3 3 3 1 1 1 0 0 0 0 0 0 0 0 0 0 0 0 1
19 22 28 34 39 40 40 37 35 33 31 30 29 26 21 16 12 9 6 5 4 4 4 4 4 3 1 0 0 0 0 0 0 0 0 0 0 0 0 0 0 0 1
22 25 29 34 40 43 41 37 34 32 30 29 29 27 21 15 11 8 6 6 6 6 5 5 4 3 1 0 0 0 0 0 0 0 0 0 0 0 0 0 1 1 1
25 28 32 36 39 41 41 39 37 33 30 27 26 23 19 14 10 7 6 6 6 6 6 6 5 4 2 1 0 0 0 0 0 0 0 0 1 1 0 1 1 1 1
24 27 32 37 41 42 42 42 39 35 31 28 24 20 16 12 8 6 6 6 6 6 6 6 6 5 4 1 0 0 0 0 0 0 0 1 2 2 2 3 4 3 2
22 24 28 35 42 45 45 42 38 36 34 30 24 17 14 11 7 5 4 5 6 6 6 6 6 6 5 3 1 1 1 1 0 0 0 1 3 3 3 4 6 6 5
23 23 25 29 37 42 43 39 36 35 35 31 23 17 13 10 7 5 4 5 5 6 6 6 6 6 6 5 4 3 3 2 1 1 1 2 2 2 2 3 5 7 8
21 21 22 25 28 32 35 35 35 35 35 32 26 19 14 11 10 8 6 5 5 4 5 6 6 6 6 6 6 6 5 4 3 2 3 3 2 1 2 3 4 6 8
16 17 19 22 23 25 28 31 33 34 34 33 29 25 19 15 13 11 8 7 5 5 6 7 7 7 7 7 6 7 7 6 4 3 3 3 3 2 3 5 6 7 7
13 14 16 18 20 23 26 28 30 33 33 31 30 27 22 17 14 12 10 8 7 6 7 8 7 7 7 7 6 7 7 6 6 4 3 3 4 4 5 8 11 10 8
13 14 15 16 18 22 26 27 29 31 31 28 26 24 20 16 14 11 10 9 8 7 8 8 8 7 7 7 6 6 6 6 6 6 4 4 5 7 8 10 13 12 9
14 16 17 17 18 20 23 24 25 26 26 24 21 19 16 14 12 10 9 8 8 7 7 7 7 7 7 6 5 5 4 4 6 6 6 6 7 8 9 9 11 11 10
15 16 18 19 18 19 19 20 19 19 18 18 17 16 16 15 12 8 6 6 5 5 5 5 5 6 6 6 5 4 3 4 6 6 6 6 7 8 7 5 6 9 9
17 17 16 17 18 18 17 17 16 15 14 15 15 14 15 15 13 8 5 3 3 3 3 3 3 4 4 5 4 3 3 4 6 6 6 6 6 7 6 4 4 6 8
19 18 17 16 17 17 15 15 15 13 13 14 14 12 13 14 12 8 4 3 3 2 3 3 3 3 3 3 2 2 4 5 6 6 6 5 5 6 7 6 6 8 9
22 21 19 18 18 16 14 13 13 11 11 13 13 12 12 12 11 8 6 3 2 1 1 2 3 3 3 3 2 2 3 5 6 5 4 4 4 5 7 9 9 11 11
25 22 19 19 18 16 14 13 11 10 10 11 12 13 13 14 12 9 7 5 2 0 0 1 1 3 3 3 3 3 4 4 4 4 3 3 3 3 5 8 9 11 11
24 22 19 19 19 17 15 13 11 11 11 11 12 12 14 14 13 10 8 6 4 2 1 0 1 2 2 2 2 3 4 5 4 3 3 3 1 1 2 3 6 7 8
21 21 20 19 19 19 16 14 12 11 11 12 12 12 13 13 12 10 8 7 5 4 2 1 1 1 1 1 1 1 3 4 4 3 3 3 1 0 0 1 2 3 4
17 19 19 18 18 18 16 13 11 11 11 12 12 12 12 11 10 8 7 5 4 4 3 2 1 0 0 0 0 0 1 2 2 2 2 2 1 0 0 0 0 1 1
13 15 15 14 15 16 15 12 11 11 10 10 11 11 11 10 8 7 5 3 2 2 1 1 1 0 0 0 0 0 0 0 1 1 1 1 1 0 0 0 0 0 0
11 11 11 10 11 12 12 12 12 12 10 9 9 9 9 9 7 5 4 2 1 1 1 0 0 0 0 0 0 0 0 0 0 0 0 0 0 0 0 0 0 0 0
11 10 10 8 7 6 8 9 10 10 10 8 8 8 8 7 6 4 3 2 1 0 0 0 0 0 0 0 0 0 0 0 0 0 0 0 0 0 0 0 0 0 0
10 11 11 9 5 4 5 7 7 8 9 8 7 7 7 6 6 4 3 2 1 0 0 0 0 0 0 0 0 0 0 0 0 0 0 0 0 0 0 0 0 0 0

GEFSSE_con_probscp_210.txt.gz
Probability
8 19 28 27 22 20 21 22 24 27 28 26 23 21 20 20 20 16 12 8 4 3 3 1 0 0 0 0 0 0 0 0 0 1 2 2 2 2 3 3 2 3 6
14 23 29 29 26 23 22 23 24 27 28 27 25 23 21 20 18 16 12 7 4 3 3 2 1 0 0 0 0 0 0 0 0 0 1 1 1 1 1 1 2 5 8
25 29 31 31 30 27 27 27 28 28 28 29 27 24 21 17 14 12 9 5 3 3 3 2 1 0 0 0 0 0 0 0 0 0 0 0 0 0 0 0 1 4 6
31 33 33 33 33 32 32 32 31 30 30 31 28 23 18 13 9 8 5 4 3 3 3 3 1 0 0 0 0 0 0 0 0 0 0 0 0 0 0 0 0 1 3
32 35 36 35 35 35 34 33 32 31 31 31 26 19 13 9 7 5 4 3 3 3 3 3 2 1 0 1 1 0 0 0 0 0 0 0 0 1 1 1 1 2 3
30 33 35 34 35 35 33 30 29 30 30 30 25 17 12 9 7 4 3 3 3 3 3 3 3 2 1 2 2 1 0 0 0 0 0 0 2 4 4 3 2 3 4
25 29 31 31 32 33 32 30 29 30 32 32 27 19 14 12 9 6 4 3 3 3 3 3 3 3 2 2 3 2 1 1 0 0 0 0 3 7 7 4 3 3 4
23 26 29 28 28 30 32 33 32 32 34 33 29 23 18 15 13 9 5 3 3 3 4 4 4 4 3 4 4 4 3 2 1 0 0 1 4 7 7 6 5 4 4
23 27 28 25 24 25 29 32 33 34 34 35 31 27 22 19 16 12 7 5 5 5 5 6 6 5 5 6 5 4 3 3 1 0 0 2 5 7 8 8 7 7 6
24 26 26 23 22 21 23 26 30 32 33 33 32 28 24 19 17 14 11 10 9 7 6 6 6 7 7 7 6 5 3 3 2 1 1 3 7 8 8 8 8 8 8
26 26 24 24 23 20 18 20 22 25 27 27 28 26 20 17 15 14 13 13 12 9 7 6 6 6 7 8 7 6 4 4 4 3 3 4 7 8 7 7 7 7 7
28 25 23 24 22 19 17 16 15 16 20 21 21 20 16 13 13 12 12 12 11 10 8 6 5 6 7 8 8 7 6 6 6 5 5 6 6 6 6 6 6 7 7
24 22 21 22 21 19 18 16 14 16 19 20 19 19 17 17 16 15 14 12 10 11 10 7 6 6 6 6 7 7 7 7 7 6 6 7 7 6 7 7 7 8 8
21 21 20 21 23 22 20 19 19 22 22 21 23 23 22 23 22 20 19 14 12 13 13 11 8 6 5 5 6 5 5 7 7 6 7 7 6 6 7 8 9 9 10
23 24 24 25 25 24 23 22 23 25 24 24 26 26 24 24 23 22 21 17 14 14 15 13 9 6 5 6 6 5 5 5 5 5 6 5 5 6 7 7 9 10 11
24 25 26 28 28 27 26 24 23 24 24 25 27 28 25 23 22 20 20 18 14 13 14 12 9 6 4 5 5 5 4 4 4 5 6 5 5 6 7 8 8 10 11
23 24 26 28 30 30 29 27 24 22 23 24 27 29 27 25 23 20 19 18 15 14 15 13 10 6 3 1 2 2 3 4 5 5 6 6 5 6 8 10 10 11 13
25 26 26 28 30 31 31 29 25 22 22 23 26 28 28 27 25 22 21 19 16 16 17 17 13 8 3 0 0 1 2 3 4 4 4 5 6 7 9 11 13 13 13
29 29 27 27 29 30 31 31 27 24 24 25 27 28 28 26 24 22 22 21 18 17 18 18 16 12 6 2 1 1 2 2 3 2 3 4 6 7 8 10 13 13 13
27 29 28 27 29 31 33 32 30 29 28 26 26 26 25 22 20 19 20 19 19 18 18 18 18 16 11 6 3 2 1 2 3 3 3 4 6 6 5 8 11 11 10
22 26 28 28 30 33 34 34 34 34 32 28 25 22 20 20 20 20 19 19 20 21 21 20 19 18 15 11 7 4 2 2 4 5 4 5 5 4 4 6 9 9 9
19 22 26 30 33 34 34 34 35 35 31 27 23 20 19 21 22 22 22 21 22 23 22 22 22 20 17 15 12 9 5 4 3 4 5 5 5 4 3 4 6 9 10
19 21 25 29 31 32 32 31 31 30 27 24 22 20 19 21 22 22 22 22 22 21 19 20 21 20 19 17 15 12 9 5 2 2 4 5 6 6 4 3 4 7 8
16 19 23 25 27 29 31 30 28 25 23 22 21 21 20 19 19 19 20 21 20 18 17 18 19 19 19 16 14 11 10 7 3 2 3 5 6 6 5 5 6 7 8
11 13 17 21 24 26 27 28 27 25 24 24 23 22 20 18 16 15 16 18 17 15 16 18 19 19 17 14 12 9 9 8 5 3 3 4 5 5 6 7 8 9 9
8 11 15 19 23 24 24 25 27 27 26 25 24 22 20 17 15 14 15 16 15 14 16 19 19 19 16 13 11 9 9 8 6 4 3 3 2 3 6 8 9 9 8

GEFSSE_con_probscp_216.txt.gz
Probability
26 29 35 34 27 21 14 6 1 0 0 0 0 0 1 2 3 3 3 3 3 3 3 3 3 3 3 3 2 1 1 1 0 0 0 0 0 0 0 1 3 4 5
35 35 36 34 27 22 16 8 2 0 0 0 0 0 0 1 2 3 3 3 3 3 3 3 3 3 3 3 3 2 2 2 1 0 0 0 0 0 0 1 2 4 6
41 36 34 33 28 23 18 12 5 1 0 0 0 1 1 1 2 3 3 3 3 3 3 3 3 3 3 3 3 3 3 2 1 0 0 0 0 1 2 2 3 5 6
40 36 34 34 31 26 21 16 10 5 3 2 2 3 3 3 3 3 3 3 3 3 3 3 3 3 3 3 3 3 3 2 1 0 0 0 2 4 6 5 6 7 8
40 38 37 37 34 29 24 20 16 12 10 8 7 5 5 5 5 5 4 3 3 3 3 3 3 3 3 3 3 3 2 2 1 0 0 1 4 9 9 8 8 9 9
42 40 38 37 35 30 26 24 22 19 18 16 12 9 8 8 8 8 6 4 4 4 4 4 4 4 4 4 3 3 1 1 1 0 0 1 5 11 13 10 9 9 9
42 40 36 36 35 31 29 29 28 25 23 21 18 15 14 13 13 12 9 6 6 6 6 6 6 6 6 5 4 3 2 1 0 0 0 2 6 13 15 11 9 9 9
43 40 36 34 33 31 31 31 30 28 25 23 21 21 20 19 18 15 11 9 8 8 8 7 7 6 6 6 5 4 4 3 2 1 1 3 10 16 15 11 9 9 9
43 40 34 29 28 29 30 30 29 28 26 24 23 24 23 22 20 16 13 11 10 10 9 8 7 6 6 6 6 6 6 5 4 3 2 6 15 20 16 12 10 10 10
44 41 33 27 25 24 24 25 26 26 25 24 24 24 23 20 18 15 13 13 13 12 10 8 7 6 6 5 5 6 7 6 5 3 3 9 20 24 19 14 12 10 9
45 42 36 30 25 21 21 22 22 22 22 22 22 22 20 17 14 12 13 15 15 12 10 8 7 6 5 4 3 5 7 6 4 3 5 13 22 23 18 14 13 11 9
41 38 34 31 26 21 21 23 20 18 20 19 19 20 17 13 12 13 15 17 16 12 10 9 7 5 5 4 2 4 7 6 3 2 7 16 21 18 14 13 12 11 10
34 29 27 29 26 24 25 25 21 19 20 19 18 19 17 13 12 15 18 19 18 13 10 9 7 5 5 4 3 5 7 6 3 2 8 16 19 15 12 11 11 10 11
34 28 25 29 30 30 31 29 24 22 22 21 21 22 20 17 15 17 20 21 19 15 12 11 9 6 5 5 5 5 6 6 3 2 7 14 16 13 11 10 10 10 12
40 34 30 33 36 38 37 33 27 26 26 25 25 26 25 23 23 24 25 24 19 16 15 13 11 10 8 7 5 5 5 5 4 4 8 13 14 13 11 9 9 10 12
44 40 37 38 40 41 39 35 31 30 29 28 29 30 28 27 30 31 30 27 22 18 17 16 15 15 13 9 6 6 6 5 5 6 9 13 14 13 11 9 8 8 10
45 44 43 42 41 40 38 35 33 33 32 32 34 34 30 28 31 32 30 28 24 21 22 22 21 19 16 11 8 7 7 6 7 8 9 10 11 10 9 9 8 8 9
45 45 44 42 43 43 40 36 35 35 36 38 40 38 33 30 32 33 31 28 25 25 26 27 25 22 17 13 9 7 6 7 8 9 8 7 6 7 7 8 8 9 10
41 41 41 41 44 47 44 38 35 35 39 42 42 40 37 34 33 32 31 28 25 25 27 27 26 24 19 14 9 5 5 6 8 8 8 7 6 5 5 6 8 10 13
37 37 37 38 44 47 44 38 32 33 37 41 42 40 38 35 31 29 28 27 25 25 27 27 25 23 20 15 9 5 4 6 7 8 8 9 7 5 5 5 7 10 12
36 36 36 39 45 48 44 37 32 32 36 38 39 37 34 31 29 27 24 25 26 26 27 27 24 20 18 16 12 9 7 6 6 7 9 9 7 6 5 6 8 10 10
37 37 38 42 45 45 42 38 35 34 35 34 34 32 28 26 28 25 24 25 27 26 25 24 21 18 17 17 16 12 8 6 5 6 8 8 7 7 7 7 8 9 9
33 34 37 42 42 38 36 37 38 37 34 31 30 30 27 25 26 26 24 25 26 23 21 20 19 17 17 17 16 13 9 5 5 6 6 6 6 7 7 7 8 9 9
24 28 33 37 36 32 31 34 37 37 34 30 29 30 29 25 24 24 23 22 23 22 20 19 18 18 17 16 16 14 11 7 6 5 5 5 6 7 8 8 8 8 9
19 23 26 28 29 29 31 33 36 36 34 31 30 30 28 25 23 22 21 22 23 22 21 20 19 18 16 16 15 14 12 10 7 5 4 4 6 7 8 9 9 8 9
17 19 21 22 24 27 30 33 35 35 34 33 31 28 27 24 23 22 22 23 24 23 22 22 21 18 15 14 14 14 13 11 9 6 4 4 4 6 8 10 9 9 9

GEFSSE_con_probscp_222.txt.gz
Probability
4 10 19 25 25 22 19 18 18 15 11 9 8 9 9 9 9 7 5 3 3 3 3 3 3 3 3 1 1 1 1 2 2 1 0 0 0 0 0 0 0 2 4
7 13 24 31 31 27 23 21 18 14 11 8 6 6 7 8 8 6 4 3 3 3 3 3 3 3 3 2 1 0 0 1 1 0 0 0 0 0 0 0 1 3 6
12 17 27 37 39 34 29 25 20 15 12 9 6 5 7 9 8 6 4 3 3 3 3 2 2 2 3 2 1 0 0 0 0 0 0 0 0 0 1 1 2 5 7
14 17 25 36 42 40 34 28 23 18 14 11 9 8 10 11 10 7 4 3 4 4 3 1 1 1 1 1 1 0 0 0 0 0 0 0 0 1 2 2 3 6 7
17 18 24 35 43 43 37 29 23 20 15 13 12 12 12 12 10 8 5 3 4 5 3 1 0 0 0 0 0 0 0 0 0 0 0 0 0 1 2 2 3 6 7
20 22 28 38 43 42 36 29 25 22 19 15 14 13 13 10 8 7 5 4 5 4 2 1 0 0 0 0 0 0 0 0 0 0 0 0 1 2 3 2 2 4 5
22 25 33 39 40 38 36 32 29 26 22 18 15 14 12 9 7 7 6 6 6 4 1 0 0 0 0 0 0 0 0 0 0 0 0 1 2 4 5 4 3 3 4
25 28 34 37 37 36 37 35 32 28 24 20 17 15 13 11 9 7 6 6 6 4 1 0 0 0 0 0 1 1 0 0 0 0 0 1 3 7 9 8 6 6 6
28 29 32 34 35 36 37 36 32 27 24 20 18 17 14 13 11 8 7 7 7 4 2 1 1 0 0 0 1 1 1 0 0 0 0 1 3 8 12 12 9 7 7
30 28 28 31 33 34 33 31 28 25 22 19 17 16 13 11 10 9 9 9 7 5 4 3 3 2 1 1 1 2 1 1 0 0 0 1 3 9 15 15 11 8 7
32 28 26 27 29 29 28 26 24 22 20 17 15 14 12 11 9 9 10 10 9 7 6 5 5 4 2 1 1 1 1 1 1 0 0 3 7 11 16 17 12 8 7
30 28 25 24 23 23 23 22 20 18 17 16 15 14 13 11 10 9 9 9 9 7 5 5 5 4 2 1 1 1 0 1 2 1 1 6 11 15 17 17 13 9 7
28 27 25 22 21 20 20 20 18 16 16 15 14 14 13 11 10 9 9 9 9 7 5 3 2 1 1 0 0 0 0 1 2 2 2 6 11 14 15 15 12 9 6
32 30 27 24 22 21 20 19 17 16 16 15 13 13 13 12 10 9 8 8 8 7 5 3 1 0 0 0 0 0 0 1 2 2 2 4 8 11 13 13 10 6 4
34 32 29 26 23 22 21 19 16 15 16 16 15 14 14 13 11 9 8 8 7 6 4 4 2 1 0 0 0 0 0 0 1 1 1 3 5 8 11 12 9 6 4
31 31 30 28 25 23 20 18 15 13 15 16 17 16 16 15 13 9 8 8 7 4 3 4 3 1 0 0 0 0 0 0 0 0 0 1 3 6 11 13 11 8 7
28 27 28 29 27 26 22 18 14 13 14 15 16 17 17 15 12 9 8 8 6 4 4 4 3 2 1 1 1 0 0 0 0 0 0 0 2 5 10 12 12 11 11
27 26 26 28 29 29 25 20 16 14 13 12 13 15 14 12 10 9 9 8 6 4 4 4 3 3 3 3 2 1 0 0 0 0 0 1 2 4 6 9 11 12 13
24 23 22 24 27 26 24 21 18 16 13 11 11 11 11 10 10 10 10 9 8 6 5 4 4 4 5 4 3 1 0 0 0 0 0 1 2 3 4 5 8 10 11
19 18 17 19 20 20 19 18 16 14 13 11 11 10 9 9 10 10 10 10 9 8 6 6 5 5 6 5 4 2 1 0 0 0 0 0 1 2 3 4 6 8 9
12 13 14 15 15 12 12 12 11 10 10 10 10 10 9 8 8 7 8 9 8 7 6 7 6 6 6 6 4 2 1 0 0 1 0 0 0 1 2 3 5 6 6
9 10 11 12 10 8 7 7 7 6 6 7 9 9 9 8 7 5 5 6 6 4 4 5 5 5 5 5 4 2 1 0 0 0 0 0 0 0 1 3 4 4 4
8 9 10 8 6 4 4 5 6 6 6 6 6 7 8 9 8 7 5 5 5 4 2 2 3 4 4 4 3 1 0 0 0 0 0 0 0 0 1 2 3 4 4
9 10 10 7 4 3 4 5 6 7 6 6 6 6 8 9 9 8 7 7 6 5 3 2 3 3 3 3 2 1 0 0 0 0 0 0 0 0 0 1 3 5 6
12 12 10 6 3 3 5 6 7 7 6 6 6 6 7 8 8 8 9 10 9 6 4 3 3 3 4 4 3 1 0 0 0 0 0 0 0 0 0 0 2 4 5
13 12 10 5 3 3 4 6 7 7 7 7 7 6 7 7 7 9 10 11 10 7 4 3 3 4 5 5 3 2 1 0 0 0 0 0 0 0 0 0 1 2 4

GEFSSE_con_probscp_228.txt.gz
Probability
3 6 12 14 14 16 17 22 27 29 29 28 28 29 29 24 19 13 9 7 5 4 4 4 3 3 3 2 1 0 0 0 0 0 0 0 0 1 2 1 1 2 3
5 9 16 19 21 22 20 22 27 29 30 30 31 31 28 23 18 14 10 7 5 4 4 3 3 3 3 3 2 1 0 0 0 0 0 0 0 1 1 1 1 2 2
9 13 20 24 27 28 26 25 27 31 31 32 31 30 27 22 18 14 11 8 6 4 4 3 3 3 3 2 2 1 1 1 0 0 0 0 0 0 0 0 0 1 1
11 14 20 25 28 31 31 31 31 33 33 32 30 29 27 24 19 15 12 9 7 6 5 4 3 3 2 1 1 1 0 0 0 0 0 0 0 0 0 0 1 1 1
12 14 21 27 29 30 33 35 35 36 36 36 34 32 29 26 21 16 12 9 8 7 6 4 3 2 1 0 0 0 0 0 0 0 0 1 1 1 0 1 2 2 2
16 18 23 28 30 30 32 35 37 39 40 39 37 33 29 25 21 16 12 10 9 9 7 4 3 2 1 0 0 1 1 0 0 1 1 1 2 1 1 3 5 4 4
22 23 26 30 31 30 31 34 37 38 38 37 34 29 25 21 19 16 14 11 10 8 5 3 3 1 0 1 1 2 1 1 1 1 1 1 1 1 2 5 7 6 6
25 26 27 30 32 31 31 33 35 35 34 32 29 25 21 18 16 15 14 11 9 7 4 3 2 2 2 2 3 2 1 1 2 3 2 1 1 1 2 4 6 6 6
25 26 28 30 33 32 30 32 34 33 31 29 26 22 21 18 15 13 13 11 9 7 5 4 4 4 5 4 4 3 1 1 2 3 3 3 3 3 4 3 3 4 5
24 26 28 32 35 35 34 33 32 30 27 25 24 21 19 16 13 12 13 12 9 6 6 5 6 6 6 6 5 3 3 3 3 3 3 3 4 6 7 7 6 5 4
23 24 28 32 35 36 36 33 29 26 22 22 22 20 17 14 11 11 12 11 9 7 6 5 5 5 6 6 5 4 5 5 4 3 2 3 4 7 11 14 13 8 4
25 25 27 29 30 32 31 29 28 27 23 21 21 20 17 15 12 11 11 10 10 9 7 6 5 4 4 5 5 4 5 5 4 2 1 2 4 8 13 17 17 12 7
27 27 26 26 27 27 26 26 28 29 25 22 21 20 19 18 15 13 11 10 10 10 9 8 6 5 5 6 6 4 4 4 3 1 2 4 6 9 12 15 17 15 12
27 26 25 26 26 25 24 24 25 26 24 21 20 20 19 19 18 15 12 11 11 10 10 10 9 7 7 8 7 3 2 3 2 2 3 5 9 11 11 13 15 15 14
24 24 25 26 27 26 23 20 20 20 20 19 19 19 19 19 18 15 13 13 13 11 11 11 9 7 7 9 7 3 1 1 1 1 2 5 9 12 12 12 12 12 11
20 22 25 27 27 26 21 17 15 14 15 16 18 18 17 17 16 15 14 13 13 12 11 10 8 7 6 7 6 4 1 0 0 1 1 2 6 9 11 11 10 9 8
17 21 25 26 24 22 18 14 12 11 11 13 16 16 16 14 14 15 15 12 11 11 9 7 6 6 5 4 4 3 1 0 0 0 0 1 2 5 7 9 9 8 7
18 21 23 23 20 18 16 12 10 9 10 11 13 14 14 12 13 15 14 11 10 10 8 5 5 5 4 3 3 3 2 1 0 0 0 0 1 3 5 6 8 8 6
17 18 19 19 17 16 14 10 8 8 9 9 11 12 12 12 13 14 13 11 9 8 7 6 5 5 4 3 3 3 2 1 0 0 0 1 2 3 3 4 5 5 3
12 14 16 17 16 15 12 8 7 8 7 8 8 9 10 11 12 12 11 10 9 7 6 5 4 4 3 3 3 3 2 1 0 0 0 1 2 3 2 2 3 3 1
7 9 12 14 14 12 9 7 7 7 6 5 6 6 6 7 8 8 7 7 7 6 4 4 3 3 3 3 3 2 1 1 0 0 1 2 3 4 3 3 3 3 2
4 7 10 11 10 8 6 5 5 4 4 4 3 3 4 4 4 4 4 5 5 4 4 4 4 3 3 3 3 2 1 1 0 0 1 2 4 5 4 4 5 5 5
5 7 10 9 6 4 4 3 2 2 3 3 3 3 3 3 3 3 3 3 3 3 3 5 5 4 3 4 4 2 1 0 0 0 1 1 3 3 3 4 4 5 6
5 6 7 7 4 3 2 2 1 1 2 3 3 3 3 3 3 2 1 2 3 2 2 5 6 5 4 3 3 2 1 0 0 0 0 0 1 1 1 2 3 4 4
4 4 5 5 3 1 1 1 0 0 2 3 3 3 3 2 1 1 0 1 2 2 1 3 4 4 3 3 3 2 1 0 0 0 0 0 0 0 0 0 1 2 2
3 4 5 4 2 0 0 0 0 1 2 3 3 3 3 1 0 0 0 1 2 2 2 2 2 3 3 3 3 3 2 1 0 0 0 0 0 0 0 0 0 1 1

GEFSSE_con_probscp_234.txt.gz
Probability
4 10 16 15 12 10 8 8 11 13 13 11 10 11 11 8 6 8 9 7 5 4 4 3 3 3 1 0 0 0 0 0 0 0 0 0 0 0 1 1 1 3 5
6 12 16 16 14 11 10 10 13 16 17 15 13 12 11 8 7 8 9 8 6 5 4 3 3 2 1 0 0 0 0 0 0 0 0 0 0 0 1 2 2 4 6
10 14 17 18 18 15 13 13 16 21 23 23 20 17 12 9 8 9 10 9 7 6 5 3 1 1 1 0 0 0 0 0 0 0 0 0 0 0 1 1 2 3 5
12 15 19 21 21 19 16 17 21 24 27 27 26 21 15 13 12 11 10 9 9 7 4 1 0 0 0 0 0 0 0 0 0 0 0 0 0 0 1 1 2 2 3
12 15 19 22 22 21 21 23 26 28 27 26 25 22 19 17 16 13 11 11 10 8 5 3 2 1 0 0 0 0 0 0 0 0 0 0 0 1 2 1 2 2 3
9 12 18 21 22 23 24 27 28 28 27 26 24 22 20 18 16 13 12 13 12 9 8 7 6 4 1 0 1 1 1 1 1 0 0 0 1 3 3 1 1 2 3
4 8 16 23 25 25 24 25 26 27 28 27 24 21 20 17 15 14 12 12 12 12 11 9 8 6 3 1 1 2 2 2 1 0 0 0 1 3 3 2 1 2 3
1 6 17 24 26 24 23 24 25 26 27 26 23 20 19 17 16 15 13 12 13 14 13 10 9 8 5 2 1 2 3 2 1 0 0 1 2 3 2 3 3 3 3
2 6 15 23 24 23 22 23 24 25 24 22 21 19 17 16 16 17 15 14 14 14 13 11 9 8 6 5 4 3 3 2 0 0 0 2 4 3 1 3 4 4 3
6 8 14 20 21 20 20 21 23 24 20 17 17 16 15 15 15 15 15 15 15 14 12 10 8 7 7 7 7 6 4 3 1 1 1 4 5 3 1 3 5 5 5
13 15 17 19 19 17 17 19 21 21 18 15 13 13 13 13 13 12 13 14 15 14 12 9 8 7 6 6 6 6 5 5 3 3 3 6 6 3 1 4 6 8 8
19 22 24 22 18 16 18 20 20 19 17 14 12 12 13 14 13 12 13 14 14 13 12 11 10 8 5 3 4 4 5 5 5 4 6 9 6 2 1 3 6 7 7
21 24 26 24 20 19 21 23 23 23 19 15 14 14 15 17 16 15 15 15 13 13 13 13 12 9 5 3 2 3 4 4 5 4 6 11 8 3 1 3 5 7 8
22 24 25 25 26 28 29 29 30 29 25 20 18 18 18 19 19 18 17 17 16 15 15 15 14 10 6 4 3 3 3 4 4 3 5 10 10 4 3 4 5 8 10
22 23 24 26 29 33 36 34 33 31 29 25 23 21 20 20 21 21 21 20 19 19 18 16 14 10 8 5 4 3 3 4 4 4 5 8 10 8 6 4 4 7 9
22 22 23 25 28 32 34 32 30 28 27 25 24 21 18 18 20 23 23 23 21 20 20 17 13 10 8 6 4 4 4 5 5 6 6 7 8 8 7 5 5 6 8
23 22 22 24 26 27 27 26 25 24 22 23 24 21 17 17 19 22 23 24 23 21 19 17 13 10 8 6 5 5 7 8 7 7 7 6 5 6 7 7 7 9 10
26 26 26 26 26 26 25 26 25 23 21 22 23 21 18 17 17 19 21 23 24 22 19 16 14 11 9 7 7 7 9 11 9 8 8 7 5 6 7 8 10 11 11
30 30 30 31 30 29 28 28 27 25 22 21 21 22 20 18 16 17 19 22 24 25 22 17 15 14 12 10 9 9 10 11 12 10 9 8 7 6 8 10 11 11 11
29 30 31 33 34 33 31 28 26 23 20 18 18 20 20 19 17 16 16 20 23 25 24 21 18 17 16 14 12 10 10 10 11 11 10 9 8 7 9 12 12 11 11
26 29 31 32 32 31 29 26 23 20 17 15 14 16 18 17 15 13 14 18 22 24 25 24 21 19 18 16 14 12 11 11 11 12 11 9 9 9 10 11 12 13 13
22 25 27 27 26 25 25 23 20 18 16 13 11 12 14 14 12 10 12 17 21 24 26 25 23 20 19 17 16 14 12 11 11 11 11 10 10 11 10 10 12 14 15
18 19 20 21 20 19 19 18 17 17 15 11 9 9 10 11 11 10 12 16 20 23 24 24 22 21 20 19 18 17 15 13 11 11 11 12 13 12 10 9 10 13 15
15 15 16 17 17 15 14 14 14 13 11 9 8 9 10 11 11 12 14 15 18 20 20 19 20 21 21 19 19 20 19 15 13 11 11 12 13 12 10 9 10 12 15
14 15 15 16 16 14 12 10 11 10 8 8 10 12 12 11 12 14 14 14 15 16 16 16 18 20 20 18 19 21 19 16 12 10 9 9 11 10 10 11 11 12 14
14 15 16 15 15 13 12 10 9 8 7 10 15 17 14 11 11 13 14 13 14 15 16 16 17 18 18 16 18 20 18 14 10 8 7 7 8 9 10 11 11 12 13

GEFSSE_con_probscp_240.txt.gz
Probability
11 13 17 19 17 15 10 6 4 6 6 5 4 3 3 3 4 6 8 9 12 13 9 3 1 0 0 0 0 0 0 1 1 0 0 1 1 1 1 1 2 4 6
14 14 17 20 19 17 13 8 6 6 7 6 4 3 3 3 4 6 7 9 10 10 8 4 2 1 0 0 0 0 0 1 2 1 0 1 2 1 1 1 2 5 7
18 15 16 20 21 20 17 14 10 8 8 7 5 4 3 3 4 5 6 7 8 8 6 5 3 1 0 1 1 0 0 1 1 1 0 1 2 4 5 4 3 5 7
21 19 19 23 23 21 20 17 13 11 9 7 6 5 4 3 4 5 6 6 7 7 6 5 4 3 1 1 1 0 0 0 1 0 0 0 4 10 11 6 5 6 6
25 23 24 27 26 24 21 18 14 13 11 8 7 6 5 5 5 6 7 7 7 8 8 7 8 7 5 3 1 1 1 1 1 1 0 0 6 15 14 8 6 7 9
25 25 28 29 29 26 22 18 16 15 13 11 9 7 7 8 8 9 8 8 8 8 8 8 10 11 8 5 3 3 2 3 2 1 1 1 8 17 17 9 6 8 11
24 26 30 30 29 27 24 21 20 18 16 14 13 11 10 9 9 9 9 9 9 8 8 8 10 11 9 7 5 4 4 4 4 3 3 4 11 20 20 12 8 8 10
24 27 28 28 26 25 25 25 25 22 18 16 15 14 12 10 8 8 9 10 10 10 9 9 11 11 8 7 7 7 6 6 5 4 5 8 16 23 23 17 11 9 9
24 26 25 22 22 24 25 26 27 24 20 16 14 14 13 11 8 7 8 10 11 11 10 11 12 11 8 7 9 9 8 7 6 6 8 13 21 26 24 19 14 11 10
22 25 25 22 22 23 24 26 28 26 22 17 14 13 12 10 8 7 8 10 12 11 10 10 11 10 8 8 9 9 8 7 6 7 10 18 25 29 27 21 16 14 12
21 24 25 24 23 23 25 28 28 26 22 18 15 14 12 10 8 7 9 12 14 13 11 11 11 10 8 8 9 9 7 6 6 7 12 21 29 31 29 24 19 17 16
20 21 23 25 24 23 28 31 28 25 23 20 17 17 15 13 11 11 12 14 15 14 13 12 12 11 9 9 10 9 7 6 6 8 14 24 30 31 28 24 20 18 18
20 22 25 29 29 28 31 34 31 27 26 23 22 22 19 17 17 19 18 16 15 15 15 15 14 12 11 11 11 10 7 6 7 8 14 23 28 28 25 21 17 15 17
24 28 33 37 38 36 35 34 32 30 28 26 26 26 24 21 22 23 22 19 16 16 17 18 16 13 11 10 10 9 7 6 6 7 12 19 23 24 22 18 13 11 12
32 37 40 43 45 44 39 36 33 32 31 30 30 28 24 22 21 21 22 20 18 17 18 21 19 15 12 10 8 7 6 5 5 6 9 14 19 21 20 16 11 9 8
41 42 42 43 46 46 42 39 37 35 34 33 31 26 21 19 19 19 20 20 18 16 18 20 20 19 16 12 8 6 4 4 6 8 10 12 16 19 19 16 13 10 8
45 44 42 41 44 46 43 42 40 36 33 32 30 26 21 18 18 19 18 18 17 17 19 20 20 19 17 12 8 6 5 6 8 10 10 11 12 14 16 17 16 14 12
47 46 43 41 43 46 45 44 40 33 29 29 29 27 24 20 19 19 17 17 19 19 19 19 18 18 15 11 9 8 9 10 11 12 11 9 9 9 11 15 18 18 17
48 48 46 44 45 46 47 45 39 33 28 28 27 26 25 22 19 18 17 18 21 20 17 14 15 16 14 11 10 10 12 14 14 13 12 9 7 7 7 11 17 20 21
46 47 46 45 46 47 47 46 41 34 29 26 23 23 22 20 18 16 16 17 20 19 14 12 13 14 14 13 10 9 12 14 15 15 14 11 10 8 7 9 14 18 19
43 45 45 46 47 47 46 46 42 35 29 24 20 18 19 19 18 17 16 18 19 16 15 15 14 13 13 13 13 10 10 12 15 16 15 14 12 11 10 11 13 16 17
40 41 43 45 47 47 46 44 41 35 28 21 17 16 17 18 18 17 18 19 19 16 15 16 15 12 11 12 13 11 9 10 12 14 15 14 13 13 13 13 13 14 15
36 38 41 44 45 45 44 42 38 32 24 19 16 15 16 16 16 16 18 18 17 15 14 14 14 12 11 11 11 11 8 8 9 10 13 14 14 14 13 12 12 12 12
32 35 40 42 43 41 40 37 34 27 21 18 17 16 16 16 16 16 17 17 15 13 11 11 12 12 11 10 10 10 9 9 9 9 10 13 14 13 12 11 10 10 10
28 32 38 41 40 38 35 33 30 24 20 18 17 16 17 18 17 16 17 16 14 11 10 11 11 11 10 10 11 10 11 11 10 9 9 11 12 12 13 12 12 10 9
26 30 36 39 40 38 34 31 28 23 19 18 16 15 18 20 18 15 15 16 13 11 10 11 10 10 10 10 11 10 11 12 11 9 9 9 10 12 13 14 14 11 8

GEFSSE_con_probscp_246.txt.gz
Probability
1 4 11 16 17 16 14 13 12 11 10 7 6 7 9 10 9 9 8 6 4 2 1 0 0 0 0 0 0 0 0 0 0 0 1 0 0 0 0 0 1 3 3
1 4 11 17 20 19 18 16 15 12 9 7 6 8 9 9 8 8 8 8 5 2 1 0 0 0 1 1 1 1 0 0 0 0 1 0 0 0 0 1 2 4 4
5 7 12 19 22 21 19 17 14 10 6 5 6 8 9 9 9 9 10 10 7 4 2 2 1 1 1 2 2 2 1 0 0 0 0 0 0 0 0 1 3 4 5
11 11 14 18 22 21 17 14 12 9 6 5 6 7 8 10 10 10 12 11 9 6 3 2 2 1 1 1 1 1 1 0 0 0 0 0 0 1 2 3 4 4 4
13 13 14 17 20 20 17 15 14 13 11 9 8 7 8 9 9 10 10 9 8 7 5 3 2 1 1 0 0 0 0 1 1 0 0 0 0 2 6 8 6 4 4
14 14 16 19 21 21 20 17 16 16 15 14 13 12 9 7 8 8 8 7 7 7 5 4 3 2 1 0 0 1 1 2 2 0 0 0 1 4 9 11 8 6 6
14 15 18 23 24 23 22 20 17 17 18 18 18 16 10 7 7 8 7 6 6 6 5 3 2 1 1 0 1 2 3 3 2 1 0 0 1 6 11 13 11 9 7
15 16 20 24 24 23 24 23 21 20 20 19 19 16 10 6 6 7 7 6 6 5 4 3 1 1 0 1 2 3 2 1 1 1 0 0 2 7 12 14 13 10 8
16 18 21 22 21 22 23 24 25 25 24 21 17 14 10 6 4 5 6 6 6 6 6 5 3 2 2 2 2 2 1 0 0 0 0 0 3 9 13 13 12 10 8
20 21 23 22 20 18 19 20 24 26 25 21 17 13 10 6 4 4 6 6 7 7 8 7 5 4 4 3 3 2 1 0 0 0 0 1 6 11 14 13 11 9 9
21 22 23 23 19 16 15 16 20 21 21 19 15 12 9 6 4 4 5 6 6 6 6 6 5 5 5 4 3 3 2 1 0 0 0 3 8 13 15 12 10 9 8
21 21 21 21 18 15 14 14 17 17 17 16 14 11 9 6 4 5 5 5 5 4 4 4 4 4 4 4 4 3 2 1 1 0 1 5 11 15 16 15 12 10 10
20 18 17 16 14 12 12 15 17 16 14 12 13 12 10 7 5 5 5 6 6 5 4 4 4 4 4 5 6 4 3 2 2 1 2 6 12 15 17 18 16 14 14
20 17 14 12 10 9 11 14 15 14 10 9 12 13 11 8 6 5 6 7 7 5 4 4 4 5 5 7 8 6 4 3 3 2 3 7 12 15 17 18 18 17 17
21 17 13 12 11 10 11 12 11 8 6 7 10 12 11 9 8 7 8 9 6 4 3 4 4 4 4 6 7 7 5 4 4 3 3 6 12 16 18 18 17 17 17
19 15 13 14 13 13 12 9 7 5 4 5 8 9 9 9 8 8 9 10 7 3 3 4 3 3 3 3 4 5 4 4 4 3 3 5 11 17 19 18 16 15 15
15 13 13 14 14 13 11 8 6 5 5 5 6 7 7 6 5 6 7 8 7 6 5 5 4 2 1 1 1 2 3 3 3 4 4 5 8 12 15 15 14 13 13
10 10 11 13 14 14 11 8 7 7 6 7 7 7 6 5 4 3 4 5 5 6 6 5 5 3 1 0 0 1 1 1 2 4 5 5 5 7 8 10 12 13 12
8 8 9 12 14 14 11 9 9 8 6 6 7 7 6 5 4 4 4 4 4 4 4 5 5 4 1 0 0 0 0 0 1 2 3 3 3 3 4 6 10 11 11
8 8 9 11 13 13 12 10 10 8 6 5 6 6 6 5 4 5 5 4 3 3 4 4 4 3 1 1 1 0 0 0 0 1 1 1 1 1 2 3 7 9 9
9 9 10 11 13 13 12 10 9 8 7 6 5 6 6 5 5 5 4 3 3 4 4 4 3 1 1 2 1 0 0 0 0 0 0 1 1 1 2 2 4 7 8
8 9 11 13 13 13 12 10 9 8 8 5 3 3 5 5 4 4 3 3 3 3 3 2 1 0 1 1 1 0 0 0 0 0 0 0 1 2 3 3 3 5 6
8 9 11 12 13 12 11 10 9 8 6 3 1 1 3 3 3 4 5 5 4 4 4 2 1 0 0 0 0 0 0 0 0 0 0 0 0 1 2 2 1 2 3
9 9 10 12 13 12 11 10 10 8 4 1 0 0 1 1 2 5 7 7 5 5 5 4 2 1 0 0 0 0 0 0 0 0 0 0 0 0 0 0 0 1 2
10 9 10 12 13 12 10 10 11 9 5 3 1 0 0 1 2 4 5 6 5 6 6 5 3 2 1 0 0 0 0 0 0 0 0 0 0 0 0 0 0 0 1
10 9 11 13 12 12 10 9 9 9 6 4 2 1 0 1 2 3 4 5 4 5 5 5 4 3 2 1 0 0 0 0 0 0 0 0 0 0 0 0 0 0 0

GEFSSE_con_probscp_252.txt.gz
Probability
2 6 11 13 13 14 14 16 19 20 18 13 10 10 10 6 4 4 4 3 4 3 1 1 1 1 0 0 0 0 0 0 0 0 0 0 0 0 0 0 0 0 0
5 8 14 15 15 17 16 17 19 20 18 12 9 10 8 4 2 3 3 2 3 2 1 0 0 0 0 0 0 0 0 0 0 0 0 0 0 0 0 0 0 0 0
11 13 17 20 20 22 22 21 21 22 18 12 9 9 8 4 1 1 1 1 1 1 1 0 1 1 1 1 0 0 0 0 0 0 0 0 0 0 0 0 0 0 0
13 15 19 23 23 24 26 26 25 25 22 15 11 9 7 4 2 1 0 0 0 1 1 1 1 2 2 1 0 0 0 0 0 0 1 1 0 0 0 0 0 0 0
12 12 16 22 24 24 27 28 27 27 26 21 15 11 9 6 4 2 1 0 0 1 2 2 2 2 1 1 0 0 0 0 1 2 2 2 1 1 1 1 1 1 1
15 12 14 21 24 25 26 27 26 28 28 26 22 18 15 11 7 4 2 1 1 2 2 2 3 3 2 1 1 1 1 1 1 3 4 3 3 3 3 4 4 4 4
20 16 17 22 25 26 27 27 26 27 29 29 26 24 21 17 12 8 5 3 3 3 2 2 2 3 3 1 1 2 2 1 2 3 3 3 2 3 4 6 7 8 7
21 20 20 23 25 27 27 27 26 27 29 29 26 24 23 20 17 13 9 6 4 4 3 3 3 3 2 1 1 2 2 2 1 1 2 1 1 2 4 6 9 9 8
21 20 20 22 24 27 28 28 27 26 28 27 24 21 20 19 17 16 13 9 7 6 5 4 3 4 4 2 1 1 1 1 0 0 0 0 1 3 5 7 9 9 8
19 18 19 21 23 26 28 29 27 26 26 25 22 20 18 16 14 14 13 11 10 7 5 3 4 5 5 4 2 1 1 1 1 0 0 0 2 4 7 8 9 9 9
18 17 18 20 23 25 28 28 26 23 23 22 21 20 18 15 12 11 11 10 9 7 5 4 4 5 6 5 2 2 3 3 3 1 1 1 2 4 7 8 9 9 9
20 18 17 19 22 23 25 25 23 20 18 19 19 18 17 14 11 10 10 9 7 6 5 3 3 3 5 5 3 3 5 6 5 4 3 2 2 5 6 8 10 10 10
21 19 18 19 20 20 21 23 21 17 16 17 17 16 14 12 11 11 11 9 7 5 4 3 2 2 3 5 5 5 6 6 7 6 5 4 5 7 7 7 9 11 11
18 16 16 17 17 16 18 19 18 15 14 14 14 13 12 11 11 12 14 11 8 6 4 4 4 3 2 3 4 5 5 6 8 8 7 7 8 10 9 7 7 10 12
14 13 12 13 13 13 14 15 14 13 12 12 11 10 9 9 9 11 12 10 8 6 5 5 6 4 2 2 3 3 3 5 6 6 7 8 9 11 12 8 6 8 10
14 12 10 9 8 9 11 12 12 11 10 9 9 8 7 6 6 7 7 6 5 4 4 4 4 3 1 1 1 2 2 2 3 4 4 6 7 9 11 10 7 8 10
14 12 9 7 5 5 8 10 10 9 7 6 5 5 4 4 4 4 4 3 3 3 3 3 3 3 2 1 1 2 2 1 1 2 2 3 3 4 7 9 8 8 9
14 11 8 6 5 3 4 6 7 6 4 3 2 2 3 3 3 4 3 3 3 3 3 3 3 3 3 3 3 3 2 1 0 0 1 1 1 1 2 5 7 7 6
11 8 5 4 3 1 1 3 4 3 2 1 1 2 4 4 4 4 4 3 3 3 3 3 3 3 3 3 3 3 2 1 0 0 0 0 0 0 1 2 4 5 4
8 5 2 1 1 1 2 3 3 2 1 0 0 2 3 4 4 4 3 3 3 3 3 3 3 3 3 3 3 2 2 1 0 0 0 0 0 0 1 2 3 4 4
9 5 2 1 1 2 3 4 3 2 0 0 1 1 1 2 3 3 3 3 3 3 3 3 3 4 4 2 1 1 1 0 0 0 0 0 0 0 1 2 3 3 4
8 6 4 3 4 5 5 7 6 4 2 1 1 0 0 1 1 2 3 3 3 3 3 3 4 4 4 2 0 0 0 0 0 0 0 0 0 0 0 1 2 2 2
4 4 5 6 8 9 9 10 11 9 6 4 2 0 0 1 1 1 2 3 3 3 3 3 3 3 2 1 0 0 0 0 0 0 0 0 0 0 0 0 1 1 1
2 3 6 8 10 11 12 13 13 12 10 6 3 1 1 2 2 1 1 1 2 3 3 3 3 1 1 0 0 0 0 0 0 0 0 0 0 0 0 0 0 1 1
2 3 7 9 10 12 13 13 13 13 10 6 3 3 3 3 2 1 0 0 1 1 2 3 3 1 0 0 0 0 0 0 0 0 0 0 0 0 0 0 0 0 0
1 3 7 10 10 11 12 13 13 13 9 5 3 3 3 3 2 1 0 0 0 0 1 3 3 2 1 0 1 1 1 0 0 0 0 0 0 0 0 0 0 0 0